VK3HAG Weather Reports


Display with metric or nautical units.
time (UTC)temp
F
wind
direction
speed
MPH
gust
MPH
rain 1hr
in
rain 24hr
in
rain mn
in
humidity
%
barometer
mb
20260904094504 58 1 0.0 1.0 0.00 0.00 0.00 75 1012.0
20260904093004 58 0 0.0 0.0 0.00 0.00 0.00 75 1012.0
20260904091504 58 1 0.0 1.0 0.00 0.00 0.00 74 1012.2
20260904090004 57 1 0.0 1.0 0.00 0.00 0.00 74 1012.3
20260904084505 57 1 0.0 1.0 0.00 0.00 0.00 74 1012.3
20260904083005 57 1 0.0 1.0 0.00 0.00 0.00 73 1012.3
20260904081504 57 0 0.0 0.0 0.00 0.00 0.00 73 1012.4
20260904080004 57 1 0.0 1.0 0.00 0.00 0.00 72 1012.8
20260904074504 57 1 0.0 1.0 0.00 0.00 0.00 72 1013.1
20260904073004 58 1 0.0 2.0 0.00 0.00 0.00 71 1013.1
20260904071504 58 1 0.0 3.0 0.00 0.00 0.00 70 1013.1
20260904070004 58 1 0.0 4.0 0.00 0.00 0.00 70 1013.3
20260904064504 59 1 0.0 2.0 0.00 0.00 0.00 69 1013.5
20260904063004 59 1 0.0 2.0 0.00 0.00 0.00 68 1013.6
20260904061504 60 1 0.0 2.0 0.00 0.00 0.00 67 1014.0
20260904060004 60 1 0.0 2.0 0.00 0.00 0.00 67 1014.1
20260904054504 60 1 0.0 3.0 0.00 0.00 0.00 67 1014.2
20260904053004 60 1 0.0 4.0 0.00 0.00 0.00 66 1014.3
20260904051504 60 1 0.0 2.0 0.00 0.00 0.00 65 1014.5
20260904050004 61 1 0.0 2.0 0.00 0.00 0.00 64 1014.5
20260904044505 61 1 0.0 1.0 0.00 0.00 0.00 64 1014.7
20260904043004 62 309 0.0 2.0 0.00 0.00 0.00 64 1014.6
20260904041504 62 247 0.0 2.0 0.00 0.00 0.00 63 1014.4
20260904040004 62 254 0.0 2.0 0.00 0.00 0.00 62 1014.4
20260904034504 61 322 0.0 3.0 0.00 0.00 0.00 65 1014.5
20260904033004 61 358 0.0 3.0 0.00 0.00 0.00 66 1014.9
20260904031504 62 298 0.0 2.0 0.00 0.00 0.00 65 1015.2
20260904030004 62 264 0.0 2.0 0.00 0.00 0.00 66 1015.4
20260904024504 64 0 0.0 0.0 0.00 0.00 0.00 62 1015.5
20260904023005 62 0 0.0 0.0 0.00 0.00 0.00 64 1015.8
20260904021504 61 257 0.0 2.0 0.00 0.00 0.00 65 1016.1
20260904020004 60 343 0.0 1.0 0.00 0.00 0.00 68 1016.4
20260904014505 58 14 0.0 1.0 0.00 0.00 0.00 69 1016.5
20260904013005 59 0 0.0 0.0 0.00 0.00 0.00 66 1016.7
20260904011505 58 258 0.0 2.0 0.00 0.00 0.00 67 1016.7
20260904010005 57 1 0.0 2.0 0.00 0.00 0.00 69 1017.0
20260904004505 58 252 0.0 1.0 0.00 0.00 0.00 67 1017.5
20260904003004 57 254 0.0 1.0 0.00 0.00 0.00 68 1017.9
20260904001505 56 256 0.0 1.0 0.00 0.00 0.00 69 1017.8
20260904000004 56 241 0.0 2.0 0.00 0.00 0.00 71 1018.0
20260903234504 54 269 0.0 1.0 0.00 0.00 0.00 76 1018.2
20260903233004 52 347 0.0 2.0 0.00 0.00 0.00 78 1018.4
20260903231504 51 0 0.0 0.0 0.00 0.00 0.00 82 1018.7
20260903230004 50 234 0.0 4.0 0.00 0.00 0.00 85 1018.6
20260903224504 49 0 0.0 0.0 0.00 0.00 0.00 86 1018.7
20260903223005 48 274 0.0 1.0 0.00 0.00 0.00 90 1018.7
20260903221504 46 0 0.0 0.0 0.00 0.00 0.00 92 1018.2
20260903220004 44 0 0.0 0.0 0.00 0.00 0.00 94 1018.1
20260903214504 43 0 0.0 0.0 0.00 0.00 0.00 94 1017.9
20260903213004 41 0 0.0 0.0 0.00 0.00 0.00 95 1017.8
20260903211504 39 0 0.0 0.0 0.00 0.00 0.00 95 1017.7
20260903210004 37 0 0.0 0.0 0.00 0.00 0.00 94 1017.4
20260903204504 37 0 0.0 0.0 0.00 0.00 0.00 93 1017.4
20260903203004 37 0 0.0 0.0 0.00 0.00 0.00 92 1017.3
20260903201504 37 0 0.0 0.0 0.00 0.00 0.00 92 1017.3
20260903200005 38 0 0.0 0.0 0.00 0.00 0.00 92 1017.4
20260903194504 38 0 0.0 0.0 0.00 0.00 0.00 92 1017.3
20260903193005 38 0 0.0 0.0 0.00 0.00 0.00 92 1017.3
20260903191504 38 0 0.0 0.0 0.00 0.00 0.00 93 1017.3
20260903190004 38 0 0.0 0.0 0.00 0.00 0.00 92 1017.2
20260903184504 38 0 0.0 0.0 0.00 0.00 0.00 92 1017.1
20260903183004 38 0 0.0 0.0 0.00 0.00 0.00 92 1017.2
20260903181504 38 0 0.0 0.0 0.00 0.00 0.00 92 1017.2
20260903180005 39 0 0.0 0.0 0.00 0.00 0.00 92 1017.1
20260903174504 39 0 0.0 0.0 0.00 0.00 0.00 91 1017.1
20260903173004 39 0 0.0 0.0 0.00 0.00 0.00 92 1017.2
20260903171504 39 0 0.0 0.0 0.00 0.00 0.00 91 1017.4
20260903170004 40 0 0.0 0.0 0.00 0.00 0.00 91 1017.4
20260903164504 41 0 0.0 0.0 0.00 0.00 0.00 90 1017.6
20260903163005 41 0 0.0 0.0 0.00 0.00 0.00 91 1017.6
20260903161504 42 0 0.0 0.0 0.00 0.00 0.00 91 1017.8
20260903160005 42 0 0.0 0.0 0.00 0.00 0.00 91 1018.0
20260903154504 42 0 0.0 0.0 0.00 0.00 0.00 91 1018.0
20260903153004 42 0 0.0 0.0 0.00 0.00 0.00 90 1018.0
20260903151504 42 0 0.0 0.0 0.00 0.00 0.00 90 1018.2
20260903150004 42 0 0.0 0.0 0.00 0.00 0.00 89 1018.2
20260903144505 43 0 0.0 0.0 0.00 0.00 0.00 90 1018.2
20260903143004 43 0 0.0 0.0 0.00 0.00 0.00 89 1018.2
20260903141504 44 0 0.0 0.0 0.00 0.00 0.00 89 1018.1
20260903140015 44 0 0.0 0.0 0.00 0.00 0.00 88 1018.2
20260903134504 45 0 0.0 0.0 0.00 0.00 0.00 87 1018.2
20260903133005 45 0 0.0 0.0 0.00 0.00 0.00 87 1018.3
20260903131504 46 0 0.0 0.0 0.00 0.00 0.00 87 1018.3
20260903130005 46 0 0.0 0.0 0.00 0.00 0.00 87 1018.3
20260903124504 46 0 0.0 0.0 0.00 0.00 0.00 86 1018.3
20260903123004 46 0 0.0 0.0 0.00 0.00 0.00 84 1018.2
20260903121504 47 0 0.0 0.0 0.00 0.00 0.00 83 1018.2
20260903120004 48 0 0.0 0.0 0.00 0.00 0.00 83 1018.2
20260903114504 49 0 0.0 0.0 0.00 0.00 0.00 84 1018.1
20260903113004 49 0 0.0 0.0 0.00 0.00 0.00 81 1017.8
20260903111505 50 0 0.0 0.0 0.00 0.00 0.00 81 1017.8
20260903110004 50 0 0.0 0.0 0.00 0.00 0.00 81 1017.6
20260903104504 50 0 0.0 0.0 0.00 0.00 0.00 83 1017.4
20260903103004 49 0 0.0 0.0 0.00 0.00 0.00 81 1017.0
20260903101505 50 0 0.0 0.0 0.00 0.00 0.00 79 1016.7
20260903100004 51 0 0.0 0.0 0.00 0.00 0.00 76 1016.6